www.pogodaiklimat.ru

Погода и климат >> Архив погоды >> Россия >> Астраханская область >> Досанг


ПОГОДА в Досанге

  • Прогноз погоды в Досанге
  • Монитор погоды в Досанге
  • Климат города

АРХИВ ПОГОДЫ в Досанге

Время (UTC), дата Ветер
(напр.,м/с)
 
Видим.   Явления Облачность Т
(С)
Тd
(С)
f
(%)
Тe
(С)
Тes
(С)
Комфортность P
(гПа)
Po
(гПа)
Тmin
(С)
Tmax
(С)
R
(мм)
R24
(мм)
S
(см)
03 12.01 В 3 10 км 10/10 300 м
[St]
-5.3 -9.0 75 -11 -11 1025.6 1028.0 -5.3 0
06 12.01 СВ 5 4000 м слабый снег 10/8 300 м
[Frnb As op]
-6.1 -9.3 78 -13 -13 1026.2 1028.5 -6.1
09 12.01 СВ 6
{10}
20 км {снег} 10/5 300 м
[Frnb As op]
-5.1 -9.5 71 -13 -13 1025.9 1028.2
12 12.01 СВ 5 20 км {снег} 10/3 300 м
[Frnb As op]
-5.2 -9.4 72 -12 -12 1025.7 1028.1
15 12.01 СВ 6 4000 м слабый снег 10/8 300 м
[Frnb As op]
-5.3 -8.9 76 -13 -13 1026.6 1029.0 -4.8 0.0
18 12.01 С 5
{10}
2000 м снег 10/10 300 м
[Frnb Ns]
-6.3 -7.6 90 -14 -14 1027.6 1030.0
21 12.01 С 5
{10}
4000 м слабый снег 10/10 300 м
[Frnb Ns]
-6.4 -7.9 89 -14 -14 1028.2 1030.6
00 13.01 С 5
{11}
4000 м слабый снег 10/10 300 м
[Frnb Ns]
-7.5 -8.9 90 -15 -15 1029.9 1032.3
03 13.01 С 6
{10}
4000 м слабый снег 10/10 300 м
[Frnb Ns]
-8.1 -10.1 85 -16 -16 1031.3 1033.7 -8.1 3 4
06 13.01 С 7-10
{10}
20 км {снег} 10/0
[Ac As]
-9.5 -11.8 83 -19 -18 1033.4 1035.8 -9.5
09 13.01 С 5
{10}
20 км 8/0
[Ac trans Ci fib]
-7.6 -10.9 77 -15 -14 1034.1 1036.5
12 13.01 С 4
{10}
20 км 8/0
[Ac trans]
-7.4 -10.7 77 -14 -14 1034.8 1037.2
15 13.01 С 3 10 км ясно -14.4 -15.8 89 -21 -21 1036.6 1039.1 -7.2 0.0
18 13.01 С 4 10 км ясно -13.5 -15.1 88 -21 -21 1037.6 1040.1
21 13.01 СВ 2 10 км ясно -16.2 -18.0 86 -21 -21 1037.8 1040.3
00 14.01 С 2 10 км ясно -18.8 -21.0 83 -24 -24 1037.8 1040.3
03 14.01 С 3 10 км ясно -20.5 -22.9 81 -28 -28 1037.8 1040.3 -20.5 4
06 14.01 СВ 2 20 км ясно -19.8 -22.2 81 -26 -25 1038.5 1041.0 -22.1
09 14.01 СВ 2 20 км ясно -15.1 -18.4 76 -20 -17 1037.7 1040.2
12 14.01 СВ 3 20 км ясно -13.2 -17.5 70 -19 -19 1037.1 1039.6
15 14.01 СВ 3 10 км ясно -18.7 -21.2 81 -26 -26 1037.2 1039.7 -13.1
18 14.01 СВ 4 10 км ясно -19.6 -22.4 78 -28 -28 1037.4 1039.9
21 14.01 СВ 2 10 км ясно -23.1 -25.8 78 -29 -29 1037.9 1040.5
00 15.01 С 2 4000 м слабый снег 10/8 300 м
[Frnb As op]
-16.9 -18.9 84 -22 -22 1037.9 1040.4
03 15.01 СВ 2 4000 м слабый снег 10/8 300 м
[Frnb As op]
-15.1 -16.9 86 -20 -20 1038.1 1040.5 -23.7 0.1 4
06 15.01 СВ 1 4000 м слабый снег [диам. изморози 1 мм] 10/6 300 м
[Frnb As op]
-11.8 -13.3 89 -14 -14 1039.2 1041.6
09 15.01 В 4 4000 м слабый снег 10/6 300 м
[Frnb As op]
-9.5 -10.8 90 -16 -16 1038.9 1041.3
12 15.01 СВ 4 4000 м слабый снег 10/8 300 м
[Frnb As op]
-11.0 -12.6 88 -18 -18 1039.0 1041.4
15 15.01 СВ 2 10 км {снег} ясно -18.4 -20.5 83 -24 -24 1039.1 1041.7 -9.3 0.3
18 15.01 В 2 10 км {снег} ясно -20.9 -23.2 82 -27 -27 1039.5 1042.0
21 15.01 СВ 1 10 км ясно -22.4 -24.9 80 -26 -26 1039.1 1041.6
00 16.01 В 1 10 км ясно -23.2 -25.9 78 -27 -27 1038.2 1040.8
03 16.01 В 1 4000 м дымка ясно -23.7 -26.3 79 -27 -27 1037.6 1040.1 -24.6 4
06 16.01 В 1 4000 м дымка [диам. изморози 5 мм] 3/3 200 м
[St]
-22.1 -24.7 79 -25 -24 1037.8 1040.3
09 16.01 В 3 20 км ледяные иглы 1/0
[Ci fib]
-14.0 -16.0 85 -20 -18 1036.0 1038.5
12 16.01 СВ 3 20 км [диам. изморози 5 мм] ясно -12.3 -14.6 83 -18 -18 1034.4 1036.8
15 16.01 СВ 2 10 км ясно -20.3 -22.5 83 -26 -26 1033.1 1035.6 -11.7 0.0
18 16.01 В 3 10 км ясно -20.5 -22.8 82 -28 -28 1031.7 1034.3
21 16.01 В 2 10 км ледяные иглы ясно -22.7 -25.2 80 -29 -29 1030.3 1032.8
00 17.01 В 2 2000 м ледяные иглы [диам. изморози 2 мм] 4/4 200 м
[St]
-20.3 -22.5 83 -26 -26 1028.6 1031.1
03 17.01 В 3 2000 м дымка 10/10 200 м
[St]
-18.4 -20.5 83 -26 -26 1027.0 1029.4 -22.7 0.0 3
06 17.01 В 2 4000 м ледяные иглы [диам. изморози 14 мм] ясно -16.6 -18.6 84 -22 -21 1026.5 1028.9
09 17.01 В 5 20 км ясно -12.1 -14.1 85 -20 -18 1024.9 1027.3
12 17.01 В 5 20 км [диам. изморози 14 мм] 8/0
[Cc]
-10.8 -15.0 71 -19 -18 1023.2 1025.6
15 17.01 В 6 10 км ясно -14.8 -17.9 77 -24 -24 1022.8 1025.3 -10.1 0.0
18 17.01 В 4 10 км ясно -18.8 -20.8 84 -27 -27 1022.4 1024.9
21 17.01 В 3 10 км ясно -19.8 -22.0 83 -27 -27 1022.4 1024.9
00 18.01 В 4 10 км ясно -21.4 -23.7 82 -31 -31 опасность
обморожения
1021.5 1024.0
03 18.01 В 3 10 км ясно -21.7 -24.1 81 -30 -30 1020.4 1022.9 -21.7 3
06 18.01 В 3 20 км 8/8 300 м
[St]
-19.3 -21.5 83 -27 -27 1020.9 1023.3 -22.0
09 18.01 В 6 20 км в посл. час снег 3/0
[Ci fib]
-11.2 -13.3 84 -20 -19 1019.0 1021.4
12 18.01 В 6
{11}
20 км {снег} 3/0
[Cc]
-10.4 -14.3 73 -19 -19 1017.0 1019.4
15 18.01 В 7-10
{11}
10 км 3/0
[Ci sp]
-12.2 -14.8 81 -22 -22 1016.2 1018.6 -10.4 0.0
18 18.01 В 5
{12}
10 км ясно -14.0 -16.1 84 -23 -23 1016.0 1018.4
21 18.01 СВ 7-10
{11}
4000 м слабый снег 10/8 300 м
[Frnb As op]
-12.9 -15.0 84 -23 -23 1015.1 1017.5
00 19.01 СВ 6
{10}
4000 м слабый снег 10/8 300 м
[Frnb As op]
-12.8 -14.8 85 -22 -22 1014.7 1017.1

 

Местоположение метеостанции Досанг (Астраханская область, Россия): широта 46.92 долгота 47.93 высота над уровнем моря -19 м.

В архиве по умолчанию представлена погода в Досанге за последнюю неделю. Архивные данные за месяц целиком и за предыдущие месяцы, начиная с января 2011 года, Вы можете получить, выбрав интересующий диапазон дат из раскрывающегося списка и нажав кнопку "Ввод!".

Внимание! Время в таблицах - всемирное. Для получения местного времени необходимо прибавить поправку, которая в Досанге равна 4 ч.

Смотрите также архив погоды в соседних городах и на ближайших метеорологических станциях:

Погода в Астрахани (Астраханская область, Россия) (71 км)
Погода в Харабали (Астраханская область, Россия) (74 км)
Погода в Зеленге (Астраханская область, Россия) (98 км)
Погода в Ганюшкино (Атырауская область, Казахстан) (108 км)
Погода в Юсте (Калмыкия, Россия) (124 км)
Погода в Жанауштогане (Атырауская область, Казахстан) (127 км)
Погода в Лимане (Астраханская область, Россия) (136 км)
Погода в Утте (Калмыкия, Россия) (158 км)
Погода в Исатай (Атырауская область, Казахстан) (163 км)
Погода в Верхнем Баскунчаке (Астраханская область, Россия) (170 км)

Пояснения к столбцам:

Ветер - указаны скорость ветра в м/с - средняя за 10 мин, порывы в срок и между сроками (в фигурных скобках) и направление, откуда дует ветер: С - северный, СВ - северо-восточный, В - восточный, ЮВ - юго-восточный, Ю - южный, ЮЗ - юго-западный, З - западный, СЗ - северо-западный.
Видимость - горизонтальная дальность видимости в метрах или километрах. При видимости от 1 до 10 км при отсутствии осадков обычно наблюдается дымка, при ухудшении видимости до 1 км и менее - туман. В сухую погоду видимость может ухудшаться дымом, пылью или мглою.
Явления - указаны атмосферные явления, наблюдавшиеся в срок или в последний час перед сроком; фигурными скобками обозначены явления, наблюдавшиеся между сроками (за 1-3 часа до срока); квадратными скобками обозначены град или гололедные отложения с указанием их диаметра в мм.
Облачность - указаны через наклонную черту общая и нижняя облачность в баллах и высота нижней границы облаков в метрах; квадратными скобками обозначены формы облаков: Ci - перистые, Cs - перисто-слоистые, Cc - перисто-кучевые, Ac - высококучевые, As - высокослоистые, Sc - слоисто-кучевые, Ns - слоисто-дождевые, Cu - кучевые, Cb - кучево-дождевые. Подробнее классификацию облаков см. в Атласе облаков (PDF).
T - Температура воздуха - температура, измеренная на высоте 2 м над землей.
Td - Температура точки росы - температура, при понижении до которой содержащийся в воздухе водяной пар достигнет насыщения.
f - Относительная влажность воздуха - влажноcть воздуха, измеренная на высоте 2 м над землей.
Te - Эффективная температура - температура, которую ощущает одетый по сезону человек в тени. Характеристика душности погоды. При расчете учитывается влияние влажности воздуха и скорости ветра на теплоощущения человека.
Tes - Эффективная температура на солнце - температура, которую ощущает человек, с поправкой на солнечный нагрев. Характеристика знойности погоды. Зависит от высоты солнца над горизонтом, облачности и скорости ветра. Ночью, в пасмурную погоду, а также при ветре 12 м/с и более поправка равна нулю.
P - Атмосферное давление - приведенное к уровню моря атмосферное давление.
Po - Атмосферное давление - измеренное на уровне метеостанции атмосферное давление.
Tmin - Минимальная температура - минимум температуры воздуха на высоте 2 м над землей.
Tmax - Максимальная температура - максимум температуры воздуха на высоте 2 м над землей.
R - Количество осадков - Количество выпавших осадков за период времени, мм. При наведении курсора мыши на число - период времени, за который выпало указанное количество осадков.
R24 - Количество осадков - Количество выпавших осадков за 24 часа, мм.
S - Снежный покров - Высота снежного покрова, см. При наведении курсора мыши на число - состояние снежного покрова и степень покрытия местности в баллах.